Content
SEND FEEDBACK

Daily
Averages
Monthly
Summary
United States of America

RALEIGH - LAKE RALEIGH, NORTH CAROLINA


Home > North America > United States > North Carolina
Elevation: 30 feet     Latitude: 35 45N     Longitude: 078 41W

WEATHER
 
SELECT A DAY
Number of Records: 193,135;   Date Range: 1/1/95 - 9/20/14
 
SHARE

PRINT THIS DATA

[ ← Previous Day ]
WEATHER ALMANAC - FEBRUARY 25, 2013
[ Next Day → ]
[ °C ]   °F
Weather ElementAverageHighLow
Temperature36.8 °F41 °F (12:51 pm)33.1 °F (5:51 am)
Dewpoint22.6 °F27 °F (2:51 am)19.9 °F (7:51 am)
Humidity57.1 %70 % (2:51 am)45 % (1:51 pm)
Barometer30.16 in30.23 in (9:51 am)30.08 in (1:51 am)
Wind Speed7.4 mph12.7 mph (9:51 am)
Weather ElementAverage
Visibility10 mi
Wind DirectionENE (60 °)

Weather ElementTotal
Precipitation---
Heating Degree Days28 (Base 65)
Averaged from 23 records on February 25, 2013
WEATHER CONDITIONS BREAKOUT
WIND DIRECTION BREAKOUT
WEATHER BY HOUR - FEBRUARY 25, 2013
[ °C ]   °F
Local TimeTemperatureDewpointHumidityBarometerVisibilityWind DirectionWind SpeedGust SpeedPrecipitationEventsConditions
1:51 AM39.2 °F26.6 °F61 %30.08 in10.0 miNE (50°)9.2 mphClear
2:51 AM36.0 °F27.0 °F70 %30.10 in10.0 miENE (60°)10.4 mphPartly Cloudy
3:51 AM34.0 °F24.1 °F67 %30.10 in10.0 miENE (60°)9.2 mphMostly Cloudy
4:51 AM34.0 °F23.0 °F64 %30.13 in10.0 miENE (60°)9.2 mphMostly Cloudy
5:51 AM33.1 °F23.0 °F66 %30.14 in10.0 miENE (60°)6.9 mphOvercast
6:51 AM33.1 °F21.0 °F61 %30.16 in10.0 miENE (60°)10.4 mphOvercast
7:51 AM33.1 °F19.9 °F59 %30.18 in10.0 miENE (60°)11.5 mphOvercast
8:51 AM34.0 °F19.9 °F56 %30.22 in10.0 miENE (70°)11.5 mphOvercast
9:51 AM36.0 °F19.9 °F52 %30.23 in10.0 miENE (60°)12.7 mphOvercast
10:51 AM37.9 °F21.0 °F51 %30.22 in10.0 miNE (50°)10.4 mphOvercast
11:51 AM39.0 °F21.0 °F49 %30.21 in10.0 miEast (90°)8.1 mphOvercast
12:51 PM41.0 °F21.9 °F47 %30.18 in10.0 miENE (60°)5.8 mphOvercast
1:51 PM41.0 °F21.0 °F45 %30.19 in10.0 miCalmOvercast
2:51 PM41.0 °F21.9 °F47 %30.17 in10.0 miENE (60°)4.6 mphOvercast
3:51 PM41.0 °F21.9 °F47 %30.16 in10.0 miENE (70°)8.1 mphOvercast
4:51 PM39.9 °F23.0 °F51 %30.16 in10.0 miENE (60°)3.5 mphMostly Cloudy
5:51 PM39.0 °F24.1 °F55 %30.16 in10.0 miENE (60°)6.9 mphMostly Cloudy
6:51 PM37.9 °F21.9 °F53 %30.17 in10.0 miEast (80°)4.6 mphMostly Cloudy
7:51 PM36.0 °F23.0 °F59 %30.17 in10.0 miENE (60°)4.6 mphMostly Cloudy
8:51 PM35.1 °F23.0 °F61 %30.18 in10.0 miNE (50°)4.6 mphMostly Cloudy
9:51 PM34.0 °F23.0 °F64 %30.17 in10.0 miENE (70°)4.6 mphMostly Cloudy
10:51 PM34.0 °F24.1 °F67 %30.14 in10.0 miENE (60°)6.9 mphOvercast
11:51 PM36.0 °F24.1 °F62 %30.15 in10.0 miENE (70°)5.8 mphOvercast
Hourly data recorded from KRDU, located miles away from Raleigh - Lake Raleigh, North Carolina







STORIES FROM OUR PARTNERS